Temperature
15 15 16 16 17 17 19 21 23 25 25 26 25 25 25 23 23 20 20 19 19 20 19 17 17 17 16 16 16 16 16 16 16 15 15 15 15 15 15 15 15 15 15 15 16 16 16 16 15
15 15 16 17 17 17 19 21 23 24 25 24 24 24 24 22 20 20 19 18 19 19 19 18 17 17 16 16 16 16 16 16 16 16 16 15 15 15 15 15 15 15 16 16 16 16 16 16 15
14 14 16 17 17 18 20 22 23 24 24 24 24 24 24 22 20 20 19 18 18 19 18 18 17 16 16 16 16 16 16 16 16 16 16 16 15 15 15 15 16 16 16 16 16 16 16 16 15
13 14 16 16 17 19 21 23 23 23 23 23 24 23 21 20 20 19 19 18 18 18 18 17 16 16 16 16 16 16 16 16 16 16 16 16 16 16 16 16 16 16 16 16 16 16 16 16 15
13 14 15 16 17 20 22 23 24 23 23 23 23 22 19 19 19 19 18 18 17 17 17 17 16 16 16 16 16 16 16 16 16 16 16 16 16 16 16 16 16 16 16 16 16 16 16 16 15
13 14 14 15 18 20 21 22 23 23 23 23 23 22 17 18 18 18 18 18 17 17 17 17 16 16 16 16 15 16 16 16 16 16 16 16 16 16 16 16 16 16 16 16 16 16 16 16 15
12 13 14 16 18 19 21 22 22 22 22 23 23 21 17 17 18 18 18 18 17 17 17 16 16 16 15 15 15 16 16 16 16 16 16 16 16 16 16 16 16 16 16 16 16 16 16 16 16
12 13 14 16 18 19 21 22 22 22 22 22 22 20 17 17 17 17 18 17 17 16 16 16 16 15 15 15 15 16 16 16 16 16 16 16 16 16 17 17 17 16 16 16 16 16 16 16 16
12 12 13 16 17 19 21 21 21 21 21 21 20 19 18 17 17 17 17 17 17 16 16 16 16 16 15 15 15 16 16 16 16 16 16 16 16 16 17 17 17 17 17 16 16 16 16 16 16
12 11 14 16 18 18 19 19 20 20 20 20 19 17 17 16 16 17 17 17 17 16 16 16 16 16 15 15 15 16 16 16 16 16 16 16 15 16 16 16 17 17 17 16 16 16 16 16 16
12 12 15 16 16 16 17 18 18 19 19 20 18 17 17 16 16 16 16 16 16 16 16 16 16 16 15 15 15 15 15 16 15 15 15 15 14 15 16 16 16 16 16 16 16 16 16 15 15
13 14 15 15 15 15 16 16 17 18 19 19 18 18 17 17 16 16 16 16 16 16 16 16 16 16 15 15 15 15 15 15 15 15 15 15 15 15 15 16 16 16 16 16 16 16 15 15 14
12 13 14 14 14 14 15 16 16 17 18 18 18 17 17 17 17 17 17 16 16 16 16 16 16 16 15 15 15 15 15 15 15 15 15 15 15 15 15 15 15 15 15 15 15 15 14 14 14
12 13 13 13 13 14 14 15 16 16 17 17 17 17 17 17 17 17 17 16 16 16 16 16 16 16 15 15 15 15 15 15 15 15 15 15 15 15 15 14 15 15 14 14 14 14 14 14 14
12 12 12 13 13 13 14 14 15 16 17 17 17 17 17 17 17 17 17 17 16 16 16 16 16 16 15 15 15 15 15 15 15 15 15 15 15 15 15 15 15 15 14 14 14 14 14 14 14
11 10 10 12 13 13 13 13 15 16 17 17 17 17 17 17 17 17 17 17 16 16 16 16 16 16 16 15 15 15 15 14 14 14 15 15 14 15 15 15 15 15 14 14 14 14 14 14 14
9 9 10 12 13 14 13 13 15 16 17 17 17 17 17 17 17 17 17 17 16 16 16 16 16 16 15 15 15 15 15 14 14 14 14 14 14 14 15 15 15 14 14 14 14 14 14 14 14
9 10 11 11 13 13 13 13 15 16 17 17 17 17 18 17 17 17 17 17 16 16 16 16 16 16 15 15 15 15 15 14 14 14 14 14 14 14 14 14 14 14 14 14 14 14 14 14 13
10 10 10 12 13 13 13 13 15 16 17 17 17 17 18 18 18 17 17 17 16 16 16 16 16 16 15 15 15 15 15 15 14 14 14 14 14 14 14 14 14 14 14 14 14 14 13 13 13
9 9 10 12 13 13 13 13 14 15 16 17 17 17 18 18 18 17 17 17 16 16 16 16 16 16 16 15 15 15 15 15 15 14 14 14 14 14 14 14 14 14 14 14 14 13 13 13 13
9 9 10 11 11 12 12 12 13 15 16 17 17 17 17 18 17 17 17 17 16 16 16 16 16 16 15 15 15 15 14 14 14 14 14 14 14 14 14 14 14 14 14 14 13 13 13 13 13
8 10 10 10 10 10 11 10 12 14 15 15 16 17 17 17 17 17 17 17 16 16 16 16 16 16 15 15 15 15 15 15 15 14 14 14 14 14 14 14 14 14 14 13 13 13 13 13 12
9 10 10 10 9 9 11 10 12 14 14 15 15 17 17 17 17 17 17 16 16 16 16 16 16 16 15 15 15 15 15 15 14 14 14 14 14 14 14 14 14 13 13 13 13 13 13 12 12
9 9 9 9 9 8 10 10 11 14 14 15 15 16 17 17 17 16 16 16 16 16 16 16 15 15 15 15 15 15 15 14 14 14 14 14 14 14 14 14 14 13 13 13 13 13 12 12 12
8 7 7 7 7 8 11 11 12 15 15 16 16 16 17 17 16 16 16 16 15 15 15 15 15 15 15 15 15 15 14 14 14 14 14 14 13 14 14 13 13 13 13 13 12 12 12 12 11
8 8 7 8 8 9 11 11 13 15 15 16 16 16 16 16 16 16 15 15 15 15 15 15 15 15 15 15 15 15 14 14 14 14 14 13 13 13 13 13 13 13 12 12 12 12 11 11 11
8 7 8 8 9 9 10 12 14 14 14 14 15 15 15 15 15 15 15 14 14 14 14 14 14 14 14 14 14 14 14 14 14 14 13 13 13 13 12 12 12 12 12 11 11 11 11 11 10
8 8 7 7 8 9 10 11 12 12 13 13 13 14 15 14 14 14 14 13 13 13 13 13 13 13 14 14 14 13 13 13 13 13 13 13 12 12 12 12 11 11 11 11 10 10 10 10 9
7 7 7 7 8 8 9 11 13 12 12 12 13 13 14 13 13 13 12 12 12 12 12 12 12 12 12 13 13 13 13 13 12 12 12 12 12 11 11 11 10 10 10 10 9 9 9 9 8
8 8 8 7 8 9 8 10 12 11 12 12 12 12 12 12 12 12 11 11 11 11 11 11 11 11 12 12 12 12 12 12 12 11 11 11 11 10 10 10 9 9 9 9 9 8 8 8 7
Wind_Speed
12 13 8 3 4 6 12 11 11 8 6 1 6 5 6 9 6 10 9 17 22 21 23 23 23 22 21 20 19 17 16 15 15 14 14 15 16 16 16 17 18 18 19 19 18 18 18 17 17
11 10 6 4 6 9 12 13 12 6 3 5 4 3 3 8 8 9 10 19 21 21 23 22 23 22 21 20 18 17 16 15 14 14 14 15 16 16 17 17 18 18 18 18 17 17 17 16 16
10 11 5 5 8 13 12 13 10 3 6 3 2 1 3 7 8 6 13 20 20 19 22 23 23 22 21 20 18 17 16 15 14 14 14 15 16 16 16 17 18 17 17 17 16 16 16 16 15
5 5 5 8 15 17 14 9 8 7 5 2 3 4 6 6 4 9 15 18 19 17 22 24 23 22 21 20 18 17 16 15 14 14 14 15 16 17 17 17 17 16 16 15 15 15 15 14 13
5 4 8 12 17 16 13 7 3 8 8 6 6 4 6 4 6 12 13 16 18 17 21 23 22 22 21 19 18 17 16 15 14 14 15 16 17 17 16 16 16 15 14 14 14 14 14 13 12
4 5 9 15 18 16 12 6 3 5 7 8 6 4 5 2 8 9 10 13 16 17 20 21 22 21 20 19 18 16 16 15 14 14 16 16 16 16 16 15 15 14 14 13 13 13 13 12 10
6 6 11 16 16 16 13 7 5 6 7 6 4 4 7 5 8 9 9 12 15 17 17 18 19 20 20 19 18 16 15 15 14 15 17 17 16 16 15 14 13 13 13 12 12 12 11 10 8
5 4 11 15 15 14 10 8 6 5 3 2 1 3 8 8 8 8 8 11 15 16 15 15 18 18 17 17 18 17 16 15 15 16 18 17 16 15 14 13 13 12 11 11 10 10 9 8 6
3 5 11 15 14 11 8 6 6 3 2 4 6 9 11 13 10 8 8 10 12 14 14 14 14 16 17 17 17 17 16 15 16 16 18 17 15 14 13 13 12 11 11 10 9 8 7 6 5
5 8 14 13 9 6 5 5 5 4 5 6 9 12 13 12 11 10 10 11 12 12 12 12 12 13 16 16 16 15 13 15 14 15 15 13 13 14 14 15 12 11 10 9 8 7 7 7 7
7 10 12 11 4 3 2 2 4 5 6 7 11 13 12 12 11 11 10 10 11 11 11 11 11 12 13 12 13 12 12 13 13 17 16 11 12 14 13 12 11 10 10 9 8 8 9 10 8
9 12 11 8 3 2 4 4 5 6 3 4 8 12 10 11 11 11 11 11 11 11 11 10 10 9 11 12 10 10 10 9 9 14 14 10 8 9 10 10 12 12 11 11 10 10 11 7 5
11 11 10 6 3 4 5 7 5 4 2 2 6 9 10 10 9 8 9 10 10 10 11 10 10 10 9 8 7 8 8 8 9 11 12 10 7 5 7 7 9 9 9 10 8 8 5 4 4
7 7 7 5 4 4 6 7 5 6 5 4 5 7 8 8 9 8 8 9 10 10 10 9 10 9 8 7 5 5 8 9 10 9 9 11 9 7 5 5 6 6 6 6 6 5 3 3 2
5 5 6 7 7 4 4 8 11 9 7 7 7 7 8 8 7 7 8 8 9 10 10 9 10 9 9 8 7 6 8 9 8 10 10 10 9 8 6 3 4 5 6 6 4 3 2 1 1
3 5 6 8 9 7 6 10 12 10 8 8 8 8 8 8 8 7 7 7 7 9 10 10 9 9 9 8 7 6 8 8 8 11 11 11 10 10 8 4 4 6 7 5 3 2 2 2 2
4 7 9 7 10 8 9 9 9 11 10 9 8 9 9 9 9 8 7 7 7 8 9 10 9 9 9 7 6 6 7 7 8 10 9 10 10 10 8 5 5 7 5 3 3 3 2 2 3
7 7 9 9 9 11 11 10 9 10 11 11 9 9 9 9 9 9 8 7 6 7 8 10 9 8 8 7 5 4 4 4 6 7 8 10 9 10 8 6 6 6 3 3 3 3 3 3 3
4 6 8 8 6 10 12 12 10 9 9 10 10 9 9 9 8 8 9 8 7 7 8 9 9 9 7 6 6 5 5 4 3 4 7 9 9 10 8 5 5 4 3 4 4 4 4 4 2
5 6 7 5 5 7 9 12 10 9 9 9 10 10 10 9 8 8 9 8 8 8 8 8 9 9 9 7 6 5 5 4 4 4 6 7 7 7 7 5 3 3 3 4 4 3 3 3 3
5 6 6 4 3 6 5 8 12 11 11 10 10 10 9 10 10 10 9 9 8 8 8 8 8 8 8 8 6 5 4 3 3 4 4 5 7 7 6 5 4 3 3 4 4 3 4 4 3
3 3 3 4 3 4 7 5 11 14 14 14 12 11 10 9 9 9 10 10 9 7 7 7 7 7 8 8 8 7 6 5 5 4 4 4 5 4 4 4 3 2 2 2 3 3 3 4 4
1 2 2 4 4 3 6 5 6 12 14 16 14 13 11 10 9 8 9 10 9 8 7 6 7 7 7 8 9 8 6 5 4 4 5 5 4 5 4 3 2 1 1 2 2 2 3 3 4
1 1 1 2 2 5 9 8 6 9 15 15 14 14 13 12 10 8 8 9 8 7 6 6 6 6 6 7 7 7 8 7 6 6 5 5 4 3 4 3 1 1 1 1 1 2 3 3 4
3 3 2 3 4 6 9 8 7 6 7 8 10 11 11 10 10 9 9 9 9 9 7 6 6 6 6 6 6 6 6 7 7 6 5 5 4 3 3 2 2 1 1 1 1 2 2 3 3
5 4 2 3 4 4 6 8 5 3 3 2 1 3 4 5 6 8 9 9 10 10 9 8 7 7 6 6 6 5 5 4 4 5 4 4 3 3 3 3 2 2 0 1 1 1 2 1 2
3 5 3 3 4 2 5 5 4 4 4 3 3 4 4 5 6 6 7 8 9 10 9 8 8 7 7 6 6 6 5 5 5 5 5 4 4 4 4 3 2 2 1 1 0 1 1 0 0
2 2 2 3 2 3 6 7 5 7 6 5 3 4 5 3 4 6 6 6 7 8 8 8 8 7 7 6 6 6 6 6 6 5 5 5 4 4 3 3 3 2 1 1 0 0 1 1 1
6 4 4 4 4 2 2 0 3 4 4 4 4 3 3 4 3 4 5 6 7 7 8 7 7 7 7 7 7 7 6 6 6 5 5 5 4 4 3 3 3 2 2 1 1 1 1 2 2
7 7 6 3 3 3 2 1 2 6 5 5 5 4 5 5 4 5 6 7 7 7 7 7 7 7 7 7 7 7 7 7 6 6 6 5 5 4 4 3 3 3 3 2 2 2 2 2 2
Wind_Direction
288 269 255 246 231 227 235 238 241 231 212 78 35 9 23 43 62 115 138 126 126 133 139 140 137 135 132 129 126 124 121 117 113 110 107 101 98 98 98 97 96 94 92 90 89 88 88 87 86
284 269 247 230 226 223 223 228 236 227 95 69 52 352 38 76 75 110 129 126 130 134 141 142 139 137 134 132 130 128 124 119 115 112 110 106 102 100 99 98 96 94 92 91 90 89 90 89 87
272 264 236 215 229 227 222 209 218 162 78 80 138 293 24 73 95 113 123 130 131 135 142 140 141 138 136 134 132 129 125 121 118 114 112 110 107 103 101 100 98 95 94 93 93 92 91 91 88
251 229 234 226 223 230 241 223 180 146 119 171 191 128 79 40 71 118 127 134 133 137 136 140 142 140 138 137 134 131 126 123 121 118 117 113 110 107 105 104 102 100 97 96 95 93 93 92 88
244 223 218 224 226 225 236 255 165 155 156 187 221 141 85 32 86 119 137 136 136 135 134 144 142 142 140 139 136 132 129 127 125 122 120 118 114 112 110 109 107 104 102 99 97 95 94 92 87
219 218 212 217 220 223 224 226 224 192 175 178 201 160 96 115 116 134 145 136 134 132 136 145 144 143 141 139 136 134 133 131 130 128 124 121 119 117 115 114 113 109 105 101 100 98 96 94 87
220 217 220 217 217 219 216 192 206 213 189 173 188 138 118 127 125 145 145 138 132 132 138 144 146 144 142 140 138 136 134 133 131 130 126 123 123 123 122 119 118 115 111 106 103 103 101 97 90
234 234 229 225 220 219 206 183 193 229 177 105 36 121 132 138 134 144 144 135 132 135 141 148 151 149 146 142 140 137 135 134 130 130 130 128 129 130 130 125 122 119 117 113 109 109 110 109 104
250 235 223 220 220 221 197 184 188 224 101 81 63 71 118 132 132 136 136 128 135 142 147 152 155 155 152 148 144 139 139 138 134 135 140 141 143 143 142 132 130 127 126 124 123 125 132 139 148
202 224 227 225 236 246 210 184 184 191 161 133 104 101 121 134 141 150 153 147 147 149 153 156 157 156 153 149 150 150 150 152 153 151 160 172 164 150 138 137 139 141 142 142 149 159 175 189 195
203 226 237 243 263 288 281 211 200 200 182 157 137 136 140 147 153 160 164 161 158 157 158 159 156 154 149 150 160 160 159 169 176 163 178 179 139 131 137 146 152 158 163 170 180 195 216 223 202
229 236 240 258 302 288 260 255 225 228 186 138 129 137 144 153 162 168 169 168 167 164 162 160 155 153 152 155 160 157 158 174 169 165 177 163 146 153 161 165 174 179 188 187 190 212 219 221 206
233 238 240 254 283 276 258 242 239 223 187 139 131 142 151 161 165 170 171 169 168 168 167 163 158 155 155 153 157 161 158 167 160 161 170 160 151 166 166 169 168 183 183 175 201 224 203 204 231
231 240 234 226 240 241 249 258 244 221 192 170 152 154 160 165 165 166 170 171 175 173 168 164 162 157 155 155 159 163 160 163 153 157 172 166 165 170 160 172 166 186 179 182 201 225 191 209 242
252 241 238 222 222 217 230 244 235 230 209 188 183 179 170 172 173 172 171 173 173 171 170 171 168 164 164 165 169 164 159 164 156 164 180 176 175 165 160 178 167 185 188 195 208 243 212 229 227
219 209 219 213 211 208 210 235 229 227 224 208 193 193 185 179 183 184 171 170 167 163 168 174 177 173 171 169 168 166 169 170 163 167 179 182 183 170 169 180 184 195 195 191 188 221 220 230 224
199 203 210 206 207 205 209 240 232 219 218 218 211 201 193 189 188 184 176 171 169 166 168 170 172 175 175 173 170 172 173 170 166 168 175 181 184 176 174 186 197 199 192 186 192 207 216 234 242
192 203 211 208 199 208 216 232 237 219 209 214 217 215 205 198 194 181 174 169 169 169 168 166 170 176 175 170 166 165 171 168 165 164 170 177 180 180 182 188 200 197 180 189 198 211 225 232 241
241 229 225 220 203 210 222 230 231 225 207 212 218 218 212 206 198 176 165 164 164 169 169 169 171 174 169 166 171 172 181 172 164 164 172 179 181 185 186 185 200 197 187 197 208 208 220 231 230
243 239 223 213 207 217 234 237 234 233 218 214 218 221 215 205 198 177 165 162 166 172 175 170 173 173 170 171 173 171 168 169 170 164 177 182 181 183 188 192 193 192 193 207 217 212 209 223 201
229 232 226 218 199 226 246 251 237 234 233 226 223 223 220 208 200 182 170 166 167 172 175 174 173 171 169 164 157 151 151 154 167 176 179 183 181 183 187 195 199 200 198 209 216 211 205 223 229
238 261 236 222 194 215 206 239 227 219 219 221 220 218 221 217 210 187 172 170 172 174 168 171 170 166 165 160 161 163 167 177 183 174 173 162 164 164 169 179 188 194 205 218 226 220 223 220 235
254 310 241 224 229 256 216 234 248 212 211 213 213 213 214 212 205 189 174 169 168 164 162 167 165 167 167 166 168 173 172 175 164 154 156 161 155 149 151 162 175 191 202 218 229 238 240 229 228
189 249 232 249 244 245 219 219 254 217 207 204 205 208 208 205 198 187 169 157 154 150 151 159 164 167 165 165 168 176 176 167 162 162 164 164 156 150 140 142 141 128 128 216 237 244 247 243 242
207 171 162 191 210 234 204 209 242 235 204 195 194 201 203 197 185 175 166 160 154 152 158 160 161 166 162 161 166 170 168 165 167 164 166 160 155 145 145 142 143 129 162 250 250 242 248 247 246
205 210 210 211 207 221 191 214 235 209 140 135 157 183 186 183 171 172 171 166 163 162 163 165 165 165 160 154 154 141 139 144 143 135 128 130 126 126 124 129 124 118 118 262 262 245 245 245 245
193 219 249 294 279 231 212 227 220 142 137 158 187 203 211 197 180 174 165 164 162 161 163 162 161 159 153 145 134 127 128 127 124 119 114 114 113 121 119 119 118 103 87 43 293 231 221 164 220
250 278 225 229 248 235 216 215 213 175 173 169 186 194 191 172 163 164 160 156 155 154 152 152 153 151 142 138 132 128 126 123 119 117 117 115 109 105 115 123 123 119 110 97 135 139 94 111 100
189 211 232 239 263 260 229 243 24 115 116 124 125 107 120 133 135 136 139 136 134 135 137 139 140 135 132 129 123 119 114 107 106 109 108 107 107 111 111 106 104 100 89 71 88 106 104 118 107
212 211 213 226 254 260 284 289 33 76 81 87 92 95 96 105 118 128 129 131 134 140 145 143 141 136 134 128 122 120 113 109 108 106 101 99 100 97 94 90 89 84 76 64 78 86 85 101 111
Height
1508 1511 1513 1516 1517 1516 1511 1499 1489 1487 1485 1487 1489 1492 1495 1499 1503 1516 1515 1516 1517 1520 1525 1530 1534 1537 1540 1542 1544 1546 1547 1548 1550 1551 1552 1553 1554 1555 1556 1557 1558 1559 1560 1560 1561 1562 1563 1564 1565
1507 1510 1513 1513 1514 1515 1505 1494 1489 1486 1486 1489 1491 1494 1497 1502 1506 1511 1515 1516 1518 1521 1526 1530 1534 1537 1540 1543 1545 1547 1548 1550 1551 1552 1553 1555 1556 1557 1558 1559 1560 1561 1562 1563 1564 1565 1566 1567 1568
1505 1508 1511 1508 1508 1505 1497 1488 1486 1485 1488 1491 1494 1497 1500 1506 1510 1513 1515 1517 1519 1523 1527 1531 1535 1538 1541 1544 1546 1548 1549 1551 1552 1554 1555 1556 1558 1559 1560 1561 1562 1563 1564 1565 1566 1567 1568 1569 1570
1505 1507 1507 1504 1502 1494 1488 1483 1482 1485 1490 1494 1496 1499 1504 1508 1511 1513 1516 1518 1520 1524 1528 1532 1535 1539 1542 1545 1547 1549 1551 1552 1554 1555 1557 1558 1560 1561 1562 1563 1564 1565 1566 1568 1568 1569 1571 1572 1573
1503 1504 1504 1500 1495 1488 1484 1482 1482 1486 1490 1495 1497 1499 1505 1509 1511 1514 1517 1520 1522 1525 1528 1533 1536 1540 1543 1545 1548 1550 1552 1553 1555 1557 1559 1560 1561 1563 1564 1565 1566 1567 1569 1570 1571 1572 1573 1574 1575
1501 1499 1501 1498 1491 1485 1483 1483 1485 1487 1490 1493 1496 1499 1506 1509 1511 1514 1518 1522 1524 1526 1529 1534 1537 1541 1544 1546 1549 1551 1552 1554 1556 1558 1560 1562 1563 1564 1565 1567 1568 1570 1571 1572 1573 1574 1575 1576 1577
1498 1497 1494 1491 1488 1485 1482 1484 1487 1488 1490 1493 1495 1499 1505 1508 1511 1515 1519 1523 1525 1527 1530 1534 1538 1541 1544 1547 1549 1551 1553 1555 1558 1560 1561 1563 1564 1566 1567 1569 1570 1572 1573 1574 1575 1576 1577 1578 1579
1494 1495 1492 1488 1486 1484 1481 1484 1487 1488 1490 1493 1495 1498 1504 1507 1510 1515 1520 1524 1526 1528 1531 1535 1538 1541 1545 1547 1550 1552 1554 1556 1558 1560 1562 1564 1566 1567 1569 1570 1572 1573 1574 1575 1576 1577 1578 1579 1580
1492 1495 1491 1487 1484 1482 1481 1484 1487 1489 1490 1493 1496 1498 1501 1506 1510 1515 1519 1522 1526 1529 1532 1535 1539 1542 1545 1548 1550 1552 1555 1557 1559 1561 1563 1565 1567 1568 1569 1571 1572 1574 1575 1576 1577 1578 1579 1580 1581
1491 1492 1486 1483 1483 1483 1482 1485 1488 1490 1491 1495 1498 1501 1503 1507 1510 1514 1517 1520 1525 1529 1532 1536 1539 1542 1545 1547 1550 1552 1555 1557 1560 1562 1564 1566 1567 1569 1570 1572 1573 1574 1576 1577 1578 1579 1580 1580 1581
1487 1486 1483 1483 1484 1486 1486 1487 1489 1490 1492 1494 1497 1501 1504 1507 1511 1514 1517 1520 1524 1528 1532 1536 1539 1542 1545 1547 1550 1552 1555 1557 1560 1562 1564 1566 1568 1569 1571 1572 1573 1575 1576 1577 1578 1579 1580 1580 1581
1485 1483 1483 1484 1486 1489 1490 1490 1491 1491 1492 1493 1496 1499 1503 1507 1510 1513 1517 1520 1524 1528 1531 1535 1539 1542 1544 1547 1550 1553 1555 1557 1560 1562 1564 1566 1568 1569 1570 1572 1573 1574 1575 1576 1578 1578 1579 1580 1581
1483 1483 1484 1486 1487 1490 1491 1491 1492 1491 1492 1493 1496 1499 1503 1506 1510 1513 1516 1519 1523 1526 1530 1534 1537 1541 1544 1547 1550 1553 1555 1557 1560 1562 1564 1566 1567 1569 1570 1571 1572 1574 1575 1576 1577 1578 1579 1580 1581
1482 1483 1485 1486 1488 1490 1491 1490 1492 1492 1492 1494 1496 1499 1502 1505 1509 1512 1515 1518 1522 1525 1529 1532 1536 1539 1543 1546 1549 1552 1554 1557 1559 1561 1563 1565 1566 1568 1569 1571 1572 1573 1574 1575 1576 1577 1578 1578 1579
1483 1484 1486 1486 1488 1489 1492 1493 1491 1491 1492 1493 1496 1499 1501 1504 1507 1510 1513 1516 1520 1523 1527 1530 1534 1538 1541 1544 1548 1551 1553 1555 1557 1559 1561 1563 1565 1566 1568 1569 1570 1572 1573 1574 1575 1576 1576 1577 1577
1483 1487 1489 1485 1486 1488 1494 1493 1488 1489 1490 1491 1494 1497 1500 1503 1506 1509 1512 1515 1518 1521 1524 1528 1532 1535 1539 1542 1546 1549 1551 1554 1556 1558 1560 1561 1563 1564 1566 1567 1569 1570 1571 1572 1573 1574 1574 1575 1575
1486 1488 1488 1485 1483 1485 1490 1490 1485 1486 1488 1490 1491 1494 1497 1500 1504 1506 1510 1513 1516 1519 1522 1525 1529 1532 1536 1540 1543 1546 1549 1552 1554 1556 1557 1559 1561 1562 1564 1565 1567 1568 1569 1570 1570 1571 1572 1572 1572
1485 1485 1484 1484 1481 1484 1487 1486 1483 1483 1484 1487 1489 1492 1494 1497 1500 1504 1507 1510 1513 1516 1520 1522 1526 1530 1533 1537 1540 1543 1546 1549 1551 1553 1555 1557 1559 1560 1561 1563 1564 1565 1566 1567 1568 1568 1569 1569 1569
1483 1484 1484 1481 1478 1482 1484 1484 1482 1480 1481 1484 1486 1489 1491 1494 1498 1501 1504 1507 1510 1514 1517 1520 1523 1526 1530 1533 1536 1539 1542 1545 1548 1550 1552 1554 1556 1557 1559 1560 1561 1562 1563 1564 1565 1565 1566 1566 1566
1484 1486 1484 1481 1479 1482 1483 1482 1479 1478 1479 1481 1483 1485 1488 1491 1494 1497 1500 1503 1507 1510 1514 1517 1520 1523 1526 1529 1532 1536 1539 1542 1545 1547 1549 1551 1553 1554 1556 1557 1558 1559 1560 1561 1561 1562 1562 1563 1563
1484 1485 1484 1483 1482 1482 1484 1485 1479 1477 1477 1478 1480 1482 1485 1487 1490 1493 1496 1500 1503 1507 1510 1513 1516 1520 1523 1526 1529 1532 1536 1539 1541 1543 1545 1547 1549 1551 1552 1553 1555 1556 1556 1557 1558 1558 1558 1559 1559
1486 1482 1483 1484 1487 1488 1487 1491 1477 1473 1473 1474 1475 1478 1481 1484 1487 1489 1492 1496 1499 1503 1507 1510 1513 1516 1519 1522 1525 1528 1530 1533 1536 1539 1541 1543 1545 1547 1548 1549 1550 1551 1552 1553 1553 1554 1554 1554 1554
1485 1483 1484 1486 1488 1489 1485 1488 1476 1466 1468 1468 1470 1473 1476 1480 1483 1486 1488 1492 1495 1499 1503 1507 1510 1513 1516 1519 1521 1524 1527 1530 1533 1535 1537 1539 1541 1542 1544 1545 1546 1547 1548 1548 1549 1549 1549 1549 1549
1485 1486 1486 1486 1489 1493 1482 1484 1477 1463 1460 1461 1464 1467 1471 1475 1479 1482 1485 1488 1491 1495 1498 1502 1506 1509 1512 1515 1518 1520 1523 1526 1528 1531 1532 1534 1536 1538 1539 1541 1542 1542 1543 1543 1544 1544 1544 1544 1544
1486 1490 1495 1495 1496 1488 1472 1475 1470 1454 1451 1454 1458 1462 1466 1470 1474 1477 1480 1484 1487 1490 1494 1498 1501 1505 1508 1511 1514 1517 1520 1522 1524 1527 1529 1531 1532 1533 1535 1536 1537 1537 1538 1538 1539 1538 1538 1538 1538
1485 1488 1492 1492 1489 1478 1468 1470 1461 1450 1450 1452 1456 1459 1462 1466 1469 1473 1476 1480 1483 1486 1490 1493 1497 1500 1504 1507 1509 1512 1515 1518 1520 1522 1524 1526 1527 1528 1530 1531 1531 1532 1532 1533 1533 1533 1533 1532 1532
1485 1486 1484 1487 1480 1479 1472 1461 1454 1450 1451 1453 1455 1458 1460 1463 1466 1470 1473 1476 1479 1482 1486 1489 1493 1496 1499 1502 1505 1508 1511 1513 1516 1518 1520 1522 1523 1524 1525 1526 1527 1527 1527 1528 1528 1527 1527 1527 1527
1484 1484 1486 1488 1483 1478 1468 1462 1458 1453 1453 1453 1455 1457 1459 1462 1465 1468 1471 1474 1476 1479 1482 1486 1489 1492 1495 1498 1501 1504 1507 1510 1512 1514 1516 1517 1518 1520 1521 1521 1521 1522 1522 1522 1522 1522 1521 1521 1521
1484 1485 1483 1482 1479 1479 1474 1467 1451 1452 1452 1454 1455 1457 1459 1461 1463 1466 1468 1471 1474 1476 1479 1482 1485 1488 1491 1494 1497 1500 1502 1505 1508 1509 1511 1512 1513 1515 1515 1516 1517 1517 1517 1517 1517 1517 1516 1516 1516
1476 1478 1480 1483 1478 1473 1475 1472 1453 1453 1453 1454 1456 1458 1460 1461 1463 1465 1467 1469 1471 1474 1476 1479 1482 1485 1488 1491 1493 1496 1498 1501 1503 1505 1506 1507 1509 1510 1511 1511 1512 1512 1512 1512 1512 1512 1512 1512 1511